Location: Carbonear
(47.7333°N, 53.2500°W)
Time: 11:02:45
(UTC+00:00)

NUDT-PHONESAT - Visible Passes

Search period start: 30 November 2022 00:00
Search period end: 10 December 2022 00:00
Orbit: 417 x 430 km, 97.4° (Epoch: 30 November)

Date Brightness Start Highest point End Pass type
(mag) Time Alt. Az. Time Alt. Az. Time Alt. Az.
30 Nov ? 10:03:34 10° NE 10:05:34 15° E 10:07:34 10° SE visible
02 Dec ? 10:09:37 10° NE 10:11:56 18° E 10:14:14 10° SE visible
04 Dec ? 10:15:24 10° NE 10:17:57 21° E 10:20:28 10° SE visible
06 Dec ? 10:20:54 10° NE 10:23:37 24° E 10:26:18 10° SSE visible
08 Dec ? 10:26:04 10° NE 10:28:55 27° E 10:31:45 10° SSE visible
